Theta_e
306 314 320 323 325 325 325 324 324 323 322 322 322 322 322 321 321 321 321 321 321 321 322 321 320 321 320 320 319 319 317 316 312 298 296 294 293 293 293 293 294 293 293
300 303 308 319 321 322 324 325 325 324 324 323 323 322 323 322 322 321 321 321 321 321 321 320 320 319 319 319 318 317 316 316 313 302 293 292 291 292 292 292 292 292 292
298 299 300 304 313 319 321 323 324 324 324 324 323 322 323 324 323 323 323 322 322 322 321 319 319 318 317 317 316 315 315 306 308 299 291 291 290 290 289 289 290 289 290
299 298 298 300 303 307 316 320 322 323 323 323 323 323 323 324 323 322 322 322 322 322 320 319 318 317 316 315 314 313 306 304 299 295 289 289 289 288 288 287 286 286 286
296 297 298 300 301 304 307 312 317 320 322 323 322 321 322 322 321 321 320 321 321 319 317 317 316 311 303 310 312 308 304 296 294 290 287 288 286 285 287 287 286 285 285
293 295 297 299 300 300 303 306 310 314 317 318 319 320 319 318 309 306 314 319 317 316 311 307 305 295 298 300 301 301 303 298 290 290 287 288 287 287 286 287 285 285 284
292 293 294 295 296 298 299 302 303 306 311 312 315 317 316 316 303 303 302 318 315 313 309 303 297 296 296 297 295 295 294 297 298 294 290 289 287 288 287 285 284 283 279
290 290 290 291 292 293 294 297 300 304 305 307 310 312 313 313 301 301 300 314 310 308 305 302 300 295 295 294 291 288 287 288 291 291 292 289 289 288 288 285 282 280 278
288 287 287 288 288 290 291 293 297 298 297 298 298 301 303 303 298 299 300 302 297 298 299 300 298 294 291 292 289 286 286 286 290 290 290 290 290 289 285 281 273 275 274
286 286 287 287 287 288 290 292 295 294 295 293 293 294 293 297 296 297 300 295 291 291 291 292 292 291 291 292 289 287 285 285 285 285 284 284 285 285 284 281 278 273 270
285 285 286 287 288 288 289 291 291 292 292 291 290 290 291 292 293 295 297 296 293 290 290 290 290 291 291 291 291 288 287 285 285 280 279 279 279 279 278 278 277 275 269
283 285 286 287 288 288 288 289 290 290 290 290 288 287 285 286 289 294 295 296 295 291 289 288 289 291 291 291 288 289 287 284 281 279 278 277 277 277 277 276 275 275 274
282 283 285 286 288 288 287 288 289 288 289 289 288 289 286 285 287 293 294 293 293 291 289 290 290 290 290 288 289 288 284 281 279 278 277 277 277 277 274 271 270 269 269
280 282 284 284 287 288 288 288 288 289 289 288 288 288 286 286 288 289 289 290 288 288 289 289 289 288 288 287 286 284 283 282 281 279 278 277 275 272 270 269 269 266 265
276 281 282 284 285 287 288 288 288 289 290 289 289 289 287 287 288 290 289 287 287 288 287 287 285 285 284 284 282 281 281 280 279 277 276 274 273 272 269 267 266 261 261
273 278 280 282 283 285 287 287 290 290 290 291 292 290 287 291 291 290 290 290 289 289 286 284 283 283 282 281 280 279 279 279 278 276 275 274 272 271 268 265 264 260 260
271 275 279 279 282 283 285 286 286 289 290 291 291 291 291 290 290 290 290 290 289 289 286 284 283 282 281 281 280 279 278 277 276 274 273 272 271 270 268 267 265 263 259
269 272 278 279 280 281 284 286 287 286 286 287 289 290 290 290 290 290 290 289 286 288 285 284 283 282 281 280 279 278 275 274 273 272 271 270 269 268 266 265 262 259 258
267 272 276 277 277 279 282 285 287 287 287 287 285 288 287 290 290 290 290 286 285 285 284 283 283 282 280 279 278 276 275 273 271 270 269 269 268 267 265 263 262 261 257
267 267 274 273 273 275 279 283 285 286 287 286 285 286 286 286 286 286 286 287 286 285 284 283 283 281 280 278 276 274 273 270 269 269 268 268 267 266 263 263 261 260 258
265 268 269 271 272 274 277 280 284 286 286 286 286 286 287 286 286 286 286 286 286 285 284 284 283 281 279 276 274 273 272 270 269 268 267 266 265 264 263 262 260 259 256
263 264 268 268 269 271 274 277 281 284 286 286 286 286 288 286 286 286 286 286 286 286 285 283 281 279 277 275 273 272 271 269 268 268 267 265 264 263 261 260 260 257 255
264 264 264 265 267 269 271 275 279 283 285 286 286 286 285 285 286 286 286 286 285 284 282 280 277 275 275 274 274 273 271 269 268 268 265 264 263 262 261 259 258 256 253
262 262 262 263 264 265 268 271 276 280 284 286 286 286 285 285 285 285 286 284 282 279 278 277 276 274 272 272 272 272 271 269 268 267 266 264 262 261 260 259 258 254 255
261 261 261 262 263 264 266 269 273 279 283 286 286 286 286 285 285 284 281 277 276 275 274 274 273 271 271 270 269 268 268 267 266 265 265 264 262 260 259 258 254 254 253
261 261 262 263 264 265 266 268 272 277 281 285 286 286 285 283 278 274 273 272 271 270 270 270 269 269 267 266 266 266 266 265 264 264 263 262 261 259 258 257 255 255 253
Wind_Speed
6 8 11 15 16 16 17 17 16 14 14 14 14 15 16 17 17 16 17 15 16 15 15 16 16 14 9 8 8 8 8 8 7 2 2 2 3 3 4 2 3 3 2
5 6 8 11 14 15 16 16 15 16 15 17 16 16 15 16 16 17 17 15 16 17 17 14 16 10 13 10 9 10 9 9 7 5 2 3 2 3 4 3 3 2 2
8 8 8 8 10 13 15 16 15 14 15 15 15 16 16 17 16 17 18 17 16 17 16 15 15 13 13 9 10 9 9 4 4 4 4 2 3 3 3 2 2 2 1
12 11 9 10 10 11 13 12 13 13 14 14 15 16 16 16 17 17 16 16 16 16 15 15 14 14 14 12 11 11 6 7 5 5 4 3 2 2 2 3 2 1 1
15 14 13 11 9 9 10 12 13 12 14 16 14 13 14 13 13 16 14 16 16 15 14 14 14 14 16 14 10 9 10 6 6 5 4 3 3 3 4 3 3 2 2
12 16 19 14 12 9 10 12 11 13 13 11 13 15 14 12 17 19 18 16 15 15 13 10 8 10 12 16 14 15 14 12 7 5 4 4 5 4 3 4 4 3 3
14 15 15 16 15 12 11 11 10 9 10 12 13 13 15 15 16 19 21 14 13 13 11 10 6 4 9 9 12 14 11 8 9 8 7 5 6 7 8 4 3 3 3
12 13 15 15 15 14 10 11 12 10 10 10 11 12 13 12 17 19 18 14 10 10 11 12 12 11 11 15 13 11 8 6 6 4 6 7 5 8 6 4 5 7 4
13 16 16 16 17 15 14 12 11 12 8 7 6 11 11 10 15 17 16 7 6 7 7 10 12 12 17 22 16 14 10 8 12 18 19 18 19 15 11 8 3 4 2
15 17 17 16 16 16 14 14 13 11 12 6 8 7 9 9 13 16 15 7 7 6 4 6 9 14 21 23 17 16 14 11 13 13 11 14 13 12 9 4 7 4 3
16 16 17 16 16 15 14 13 11 12 11 9 8 6 7 6 8 15 16 9 9 8 8 8 6 23 22 20 21 14 15 15 16 11 9 8 6 7 5 5 4 4 4
17 19 18 18 13 12 14 12 11 11 11 10 7 4 1 1 5 13 16 12 15 11 10 8 10 24 21 20 13 21 28 19 10 9 9 7 7 6 5 4 5 6 4
20 19 19 18 15 12 12 11 10 8 9 7 5 5 3 2 2 10 12 15 16 10 9 14 23 23 23 18 23 28 21 10 11 10 9 7 5 7 7 4 6 7 6
20 19 18 17 17 14 9 7 7 8 7 6 5 5 3 3 4 4 5 8 10 9 14 13 18 17 15 16 17 15 9 9 10 10 8 8 7 5 4 2 4 2 4
17 15 16 14 16 15 11 9 8 8 8 7 7 6 6 7 8 11 10 9 9 13 14 11 10 11 12 11 9 8 8 8 9 7 9 9 8 6 3 2 3 2 3
17 13 14 13 14 13 12 12 12 16 16 16 14 8 4 5 12 15 18 18 21 27 11 12 11 11 12 12 11 10 8 9 8 9 9 9 9 8 5 2 3 3 4
16 17 12 15 12 14 12 11 13 8 15 16 16 14 13 9 17 19 20 23 29 24 9 11 12 12 11 11 12 11 10 8 9 9 9 9 8 7 8 7 6 5 3
17 21 13 11 12 12 12 12 11 10 10 7 11 12 15 16 20 22 23 23 15 13 10 13 12 12 11 12 11 10 9 9 9 9 8 8 9 9 8 7 5 4 4
15 13 14 13 13 15 14 12 12 11 10 8 4 8 10 18 21 23 28 13 14 11 9 10 10 12 12 11 10 10 11 11 10 10 9 9 8 8 7 6 6 7 6
14 22 17 14 14 15 12 13 12 11 11 9 8 9 5 7 9 11 13 12 12 11 10 11 11 10 11 11 11 11 10 10 9 8 9 8 8 8 8 8 7 7 3
13 14 19 14 14 14 13 13 12 12 11 11 11 9 16 11 12 13 14 12 11 11 11 11 11 11 11 12 12 11 12 10 9 9 8 8 9 8 7 7 7 6 5
14 14 12 13 13 16 15 15 13 13 12 11 11 10 21 13 11 12 13 13 12 11 10 11 10 11 12 13 14 13 13 12 11 10 8 8 8 8 7 7 7 5 4
14 16 16 14 14 18 16 16 15 14 13 12 10 9 9 12 11 11 12 12 11 12 11 11 12 11 10 11 11 13 15 14 13 12 11 10 8 8 8 8 8 6 4
14 15 16 15 14 14 15 16 16 18 16 12 11 11 10 11 12 12 11 10 9 10 11 12 12 16 14 12 11 9 9 10 10 11 13 11 9 10 8 7 7 5 5
15 16 16 16 15 15 16 15 16 16 15 12 11 10 11 11 11 8 7 7 7 7 9 11 12 17 19 19 16 15 16 18 13 14 9 11 11 11 8 7 6 5 4
15 16 15 15 15 15 15 15 16 16 15 12 11 11 10 8 7 8 9 9 9 9 12 8 13 20 21 17 18 20 20 20 17 17 11 10 10 8 7 8 9 5 5
Wind_Direction
278 272 261 252 242 237 234 234 231 229 224 223 219 218 218 217 215 217 221 222 219 225 222 216 219 208 202 203 204 205 207 204 224 121 116 119 124 155 134 103 113 119 126
299 280 277 275 261 252 246 241 232 230 224 223 216 219 221 221 217 217 219 217 221 223 225 216 215 202 205 201 200 205 205 198 203 161 135 137 122 242 128 143 130 141 146
320 316 299 280 275 263 252 246 238 230 226 225 224 221 222 222 219 219 220 218 218 222 220 213 213 199 205 201 202 203 203 170 164 132 146 121 109 204 106 113 135 143 190
326 318 302 291 275 267 269 262 248 233 227 222 221 224 222 222 220 219 218 223 221 217 212 204 205 200 203 202 203 200 171 162 142 128 115 128 158 141 120 133 151 52 69
327 321 303 293 280 277 271 264 262 242 230 223 215 222 226 220 222 218 213 217 218 210 205 201 202 201 200 196 191 187 166 142 142 135 118 140 135 150 172 160 122 112 50
339 323 312 305 300 290 288 281 267 262 250 234 228 221 219 224 214 201 208 216 214 208 195 189 183 186 194 186 183 172 168 160 149 137 145 154 163 154 127 142 124 153 189
341 322 314 316 308 298 292 290 276 259 255 240 228 224 223 221 207 203 207 211 214 204 191 179 171 189 147 127 109 108 108 117 148 149 157 165 151 169 139 130 139 122 132
327 322 319 319 310 306 294 287 284 271 247 254 242 225 222 226 199 201 209 210 204 196 187 185 174 161 150 136 118 99 86 81 125 135 149 142 119 131 120 121 122 106 75
328 327 323 319 309 308 302 288 280 274 256 219 237 232 222 220 199 198 185 195 196 189 179 175 166 155 147 137 123 118 103 95 95 100 100 106 106 115 124 116 100 111 117
329 320 315 311 307 303 301 294 287 274 264 242 239 228 229 222 196 196 181 160 149 143 128 132 159 145 147 142 133 137 131 140 128 112 102 88 92 111 109 122 146 147 134
318 315 317 318 318 312 304 299 292 285 273 258 244 239 232 209 196 189 178 171 163 154 157 155 154 151 154 148 144 150 152 143 130 119 113 104 93 90 84 73 77 113 123
320 318 318 319 319 312 304 303 296 283 271 264 253 239 295 193 213 192 183 166 160 156 161 151 152 153 151 148 136 138 140 134 131 128 123 130 128 122 113 97 79 73 63
324 322 321 318 314 309 305 306 303 287 273 266 247 250 201 168 171 187 169 155 155 146 151 157 154 153 150 144 146 145 142 145 142 143 146 142 137 125 119 94 68 76 70
319 319 320 318 317 315 303 295 292 288 272 263 245 243 233 174 185 169 155 141 129 118 132 139 148 143 140 138 141 143 148 157 156 148 143 124 119 127 129 105 111 91 82
317 313 317 316 314 311 301 286 282 268 263 269 252 234 207 207 201 179 172 158 152 143 132 134 144 140 143 150 146 150 146 149 146 135 137 139 144 139 116 112 99 91 97
315 311 315 311 313 309 305 302 266 259 266 262 261 230 245 241 177 176 168 161 151 147 147 154 159 161 162 158 157 154 155 155 150 139 145 151 150 145 129 107 95 105 123
307 305 307 311 308 309 307 298 298 284 251 256 249 233 214 196 182 176 171 163 161 158 161 170 171 170 167 166 164 168 161 162 145 143 149 149 139 133 138 137 130 128 101
303 298 298 303 305 304 298 297 288 282 284 269 241 231 209 194 187 181 170 159 171 183 175 172 176 171 168 170 166 160 150 147 147 142 145 146 142 146 145 146 146 128 123
306 297 303 302 302 300 296 290 286 276 270 269 253 228 213 199 193 189 175 176 180 186 181 180 175 169 168 170 160 155 156 152 152 147 149 147 151 142 132 132 130 127 127
304 296 295 306 298 297 292 289 288 278 269 258 238 230 202 183 197 191 193 191 191 189 182 177 173 169 168 161 155 148 143 145 146 148 143 153 145 139 142 143 143 145 150
300 304 296 294 297 295 289 286 283 278 263 255 248 224 199 201 202 203 194 197 194 187 183 180 171 164 163 158 152 150 152 150 151 139 150 156 143 140 142 135 131 126 130
293 290 293 297 294 291 289 287 282 277 266 252 250 231 213 210 212 206 203 198 191 187 176 171 165 165 165 162 155 152 152 152 145 142 153 146 137 135 135 134 131 127 123
296 299 293 292 289 289 288 284 279 275 265 255 246 233 211 213 218 212 204 201 192 174 163 159 154 151 151 150 155 161 157 162 153 150 150 147 141 142 145 143 137 129 135
293 294 290 289 288 285 282 281 280 277 273 255 251 240 225 214 216 211 204 189 184 175 163 155 157 155 147 143 138 145 134 135 135 141 141 141 137 145 136 134 134 125 133
289 287 284 284 281 281 282 278 278 277 273 255 245 240 230 221 215 201 162 155 163 166 160 145 143 144 139 133 133 129 133 130 127 131 129 128 139 139 137 130 129 127 128
286 282 281 280 279 275 274 277 277 275 271 253 240 233 226 203 165 153 151 150 150 141 132 128 136 130 125 121 126 129 131 127 127 126 127 131 135 131 136 134 139 140 142